Time,TemperatureF,DewpointF,PressureIn,WindDirection,WindDirectionDegrees,WindSpeedMPH,WindSpeedGustMPH,Humidity,HourlyPrecipIn,Conditions,Clouds,dailyrainin,SoftwareType,DateUTC
2013-07-28 00:02:00,61.0,24.0,29.91,West,261,0.0,0.0,24,0.00,,---,0.00,VWS V14.01,2013-07-28 06:02:00,
2013-07-28 00:07:00,60.6,23.6,29.91,WSW,244,0.0,0.0,24,0.00,,---,0.00,VWS V14.01,2013-07-28 06:07:00,
2013-07-28 00:12:00,60.4,23.5,29.91,WSW,244,0.0,0.0,24,0.00,,---,0.00,VWS V14.01,2013-07-28 06:12:00,
2013-07-28 00:17:00,60.1,23.2,29.91,WSW,244,0.0,0.0,24,0.00,,---,0.00,VWS V14.01,2013-07-28 06:17:00,
2013-07-28 00:22:00,59.7,22.9,29.91,SSW,198,2.7,2.7,24,0.00,,---,0.00,VWS V14.01,2013-07-28 06:22:00,
2013-07-28 00:27:00,59.5,23.7,29.91,SW,217,0.0,4.0,25,0.00,,---,0.00,VWS V14.01,2013-07-28 06:27:00,
2013-07-28 00:32:00,58.8,24.0,29.91,SW,217,0.0,0.0,26,0.00,,---,0.00,VWS V14.01,2013-07-28 06:32:00,
2013-07-28 00:37:00,57.7,23.1,29.91,SW,217,0.0,0.0,26,0.00,,---,0.00,VWS V14.01,2013-07-28 06:37:00,
2013-07-28 00:42:00,57.0,23.4,29.91,SW,217,0.0,0.0,27,0.00,,---,0.00,VWS V14.01,2013-07-28 06:42:00,
2013-07-28 00:47:00,56.7,23.1,29.91,SW,217,0.0,0.0,27,0.00,,---,0.00,VWS V14.01,2013-07-28 06:47:00,
2013-07-28 00:52:00,56.7,23.1,29.91,SW,217,0.0,0.0,27,0.00,,---,0.00,VWS V14.01,2013-07-28 06:52:00,
2013-07-28 00:57:00,56.7,24.0,29.91,SSE,166,0.0,3.1,28,0.00,,---,0.00,VWS V14.01,2013-07-28 06:57:00,
2013-07-28 01:02:00,57.2,23.5,29.91,SSW,199,0.0,0.0,27,0.00,,---,0.00,VWS V14.01,2013-07-28 07:02:00,
2013-07-28 01:07:00,57.6,23.9,29.91,SSW,199,0.0,0.0,27,0.00,,---,0.00,VWS V14.01,2013-07-28 07:07:00,
2013-07-28 01:12:00,58.6,23.9,29.91,SSE,152,2.7,3.1,26,0.00,,---,0.00,VWS V14.01,2013-07-28 07:12:00,
2013-07-28 01:17:00,59.5,24.6,29.91,West,263,2.7,3.6,26,0.00,,---,0.00,VWS V14.01,2013-07-28 07:17:00,
2013-07-28 01:22:00,59.4,23.6,29.91,West,261,0.0,3.6,25,0.00,,---,0.00,VWS V14.01,2013-07-28 07:22:00,
2013-07-28 01:27:00,59.2,23.4,29.91,West,265,0.0,3.6,25,0.00,,---,0.00,VWS V14.01,2013-07-28 07:27:00,
2013-07-28 01:32:00,59.0,23.2,29.91,West,260,0.0,0.0,25,0.00,,---,0.00,VWS V14.01,2013-07-28 07:32:00,
2013-07-28 01:37:00,58.8,24.0,29.91,West,260,0.0,0.0,26,0.00,,---,0.00,VWS V14.01,2013-07-28 07:37:00,
2013-07-28 01:42:00,59.2,23.4,29.91,West,260,0.0,0.0,25,0.00,,---,0.00,VWS V14.01,2013-07-28 07:42:00,
2013-07-28 01:47:00,59.5,23.7,29.91,West,260,0.0,0.0,25,0.00,,---,0.00,VWS V14.01,2013-07-28 07:47:00,
2013-07-28 01:52:00,59.9,24.0,29.91,West,260,0.0,0.0,25,0.00,,---,0.00,VWS V14.01,2013-07-28 07:52:00,
2013-07-28 01:57:00,59.9,24.0,29.91,West,260,0.0,0.0,25,0.00,,---,0.00,VWS V14.01,2013-07-28 07:57:00,
2013-07-28 02:02:00,60.1,24.2,29.91,SSW,195,3.6,3.6,25,0.00,,---,0.00,VWS V14.01,2013-07-28 08:02:00,
2013-07-28 02:07:00,59.9,24.0,29.91,South,177,3.1,4.0,25,0.00,,---,0.00,VWS V14.01,2013-07-28 08:07:00,
2013-07-28 02:12:00,59.5,23.7,29.91,SW,225,0.0,4.0,25,0.00,,---,0.00,VWS V14.01,2013-07-28 08:12:00,
2013-07-28 02:17:00,59.4,23.6,29.91,South,185,3.6,4.9,25,0.00,,---,0.00,VWS V14.01,2013-07-28 08:17:00,
2013-07-28 02:22:00,59.4,23.6,29.91,South,191,0.0,4.9,25,0.00,,---,0.00,VWS V14.01,2013-07-28 08:22:00,
2013-07-28 02:27:00,58.8,23.1,29.91,South,189,0.0,4.9,25,0.00,,---,0.00,VWS V14.01,2013-07-28 08:27:00,
2013-07-28 02:32:00,58.1,22.5,29.91,WSW,244,0.0,0.0,25,0.00,,---,0.00,VWS V14.01,2013-07-28 08:32:00,
2013-07-28 02:37:00,57.6,22.0,29.91,South,179,3.1,3.1,25,0.00,,---,0.00,VWS V14.01,2013-07-28 08:37:00,
2013-07-28 02:42:00,57.6,23.0,29.88,SSW,207,0.0,3.6,26,0.00,,---,0.00,VWS V14.01,2013-07-28 08:42:00,
2013-07-28 02:47:00,57.0,22.5,29.88,SE,127,0.0,0.0,26,0.00,,---,0.00,VWS V14.01,2013-07-28 08:47:00,
2013-07-28 02:52:00,56.3,21.9,29.88,SE,127,0.0,0.0,26,0.00,,---,0.00,VWS V14.01,2013-07-28 08:52:00,
2013-07-28 02:57:00,55.4,21.1,29.88,SE,131,0.0,0.0,26,0.00,,---,0.00,VWS V14.01,2013-07-28 08:57:00,
2013-07-28 03:02:00,54.7,21.4,29.88,SSE,151,0.0,0.0,27,0.00,,---,0.00,VWS V14.01,2013-07-28 09:02:00,
2013-07-28 03:07:00,54.1,21.8,29.88,SSE,151,0.0,0.0,28,0.00,,---,0.00,VWS V14.01,2013-07-28 09:07:00,
2013-07-28 03:12:00,53.6,21.3,29.88,SSW,211,0.0,0.0,28,0.00,,---,0.00,VWS V14.01,2013-07-28 09:12:00,
2013-07-28 03:17:00,53.4,22.0,29.88,SSW,211,0.0,0.0,29,0.00,,---,0.00,VWS V14.01,2013-07-28 09:17:00,
2013-07-28 03:22:00,53.2,21.8,29.88,SSW,211,0.0,0.0,29,0.00,,---,0.00,VWS V14.01,2013-07-28 09:22:00,
2013-07-28 03:27:00,53.1,22.5,29.88,SSW,211,0.0,0.0,30,0.00,,---,0.00,VWS V14.01,2013-07-28 09:27:00,
2013-07-28 03:32:00,52.7,22.2,29.88,SSW,211,0.0,0.0,30,0.00,,---,0.00,VWS V14.01,2013-07-28 09:32:00,
2013-07-28 03:37:00,52.5,22.0,29.88,SSW,211,0.0,0.0,30,0.00,,---,0.00,VWS V14.01,2013-07-28 09:37:00,
2013-07-28 03:42:00,52.3,21.8,29.88,SSW,211,0.0,0.0,30,0.00,,---,0.00,VWS V14.01,2013-07-28 09:42:00,
2013-07-28 03:47:00,52.0,22.3,29.88,SSW,211,0.0,0.0,31,0.00,,---,0.00,VWS V14.01,2013-07-28 09:47:00,
2013-07-28 03:52:00,52.2,22.5,29.88,SW,219,0.0,0.0,31,0.00,,---,0.00,VWS V14.01,2013-07-28 09:52:00,
2013-07-28 03:57:00,52.2,22.5,29.88,SSW,206,0.0,2.7,31,0.00,,---,0.00,VWS V14.01,2013-07-28 09:57:00,
2013-07-28 04:02:00,52.2,22.5,29.88,WSW,257,0.0,0.0,31,0.00,,---,0.00,VWS V14.01,2013-07-28 10:02:00,
2013-07-28 04:07:00,52.0,22.3,29.88,WSW,257,0.0,0.0,31,0.00,,---,0.00,VWS V14.01,2013-07-28 10:07:00,
2013-07-28 04:12:00,52.2,22.5,29.88,WSW,241,0.0,0.0,31,0.00,,---,0.00,VWS V14.01,2013-07-28 10:12:00,
2013-07-28 04:17:00,52.0,22.3,29.88,WSW,241,0.0,0.0,31,0.00,,---,0.00,VWS V14.01,2013-07-28 10:17:00,
2013-07-28 04:22:00,52.2,22.5,29.88,WSW,241,0.0,0.0,31,0.00,,---,0.00,VWS V14.01,2013-07-28 10:22:00,
2013-07-28 04:27:00,52.2,22.5,29.88,SSW,205,0.0,0.0,31,0.00,,---,0.00,VWS V14.01,2013-07-28 10:27:00,
2013-07-28 04:32:00,52.5,22.8,29.88,SSW,205,0.0,0.0,31,0.00,,---,0.00,VWS V14.01,2013-07-28 10:32:00,
2013-07-28 04:37:00,52.3,22.6,29.88,SSW,205,0.0,0.0,31,0.00,,---,0.00,VWS V14.01,2013-07-28 10:37:00,
2013-07-28 04:42:00,52.2,22.5,29.88,SSW,205,0.0,0.0,31,0.00,,---,0.00,VWS V14.01,2013-07-28 10:42:00,
2013-07-28 04:48:00,51.8,22.1,29.88,SW,216,0.0,0.0,31,0.00,,---,0.00,VWS V14.01,2013-07-28 10:48:00,
2013-07-28 04:53:00,51.6,22.7,29.88,SSW,192,0.0,0.0,32,0.00,,---,0.00,VWS V14.01,2013-07-28 10:53:00,
2013-07-28 04:58:00,51.3,22.4,29.88,SSW,192,0.0,0.0,32,0.00,,---,0.00,VWS V14.01,2013-07-28 10:58:00,
2013-07-28 05:03:00,51.1,23.0,29.88,SSW,192,0.0,0.0,33,0.00,,---,0.00,VWS V14.01,2013-07-28 11:03:00,
2013-07-28 05:08:00,50.2,22.2,29.91,SSW,192,0.0,0.0,33,0.00,,---,0.00,VWS V14.01,2013-07-28 11:08:00,
2013-07-28 05:13:00,49.8,21.9,29.91,SSW,192,0.0,0.0,33,0.00,,---,0.00,VWS V14.01,2013-07-28 11:13:00,
2013-07-28 05:18:00,49.6,21.7,29.91,SSW,192,0.0,0.0,33,0.00,,---,0.00,VWS V14.01,2013-07-28 11:18:00,
2013-07-28 05:23:00,49.6,23.1,29.88,SSW,192,0.0,0.0,35,0.00,,---,0.00,VWS V14.01,2013-07-28 11:23:00,
2013-07-28 05:28:00,49.5,23.0,29.88,SSW,192,0.0,0.0,35,0.00,,---,0.00,VWS V14.01,2013-07-28 11:28:00,
2013-07-28 05:33:00,49.1,22.6,29.88,SSW,192,0.0,0.0,35,0.00,,---,0.00,VWS V14.01,2013-07-28 11:33:00,
2013-07-28 05:38:00,48.9,22.5,29.91,SSW,192,0.0,0.0,35,0.00,,---,0.00,VWS V14.01,2013-07-28 11:38:00,
2013-07-28 05:43:00,48.6,22.2,29.91,SSW,192,0.0,0.0,35,0.00,,---,0.00,VWS V14.01,2013-07-28 11:43:00,
2013-07-28 05:48:00,48.7,23.6,29.91,SSW,192,0.0,0.0,37,0.00,,---,0.00,VWS V14.01,2013-07-28 11:48:00,
2013-07-28 05:53:00,48.7,23.6,29.88,SSW,192,0.0,0.0,37,0.00,,---,0.00,VWS V14.01,2013-07-28 11:53:00,
2013-07-28 05:58:00,48.7,23.6,29.88,SSW,192,0.0,0.0,37,0.00,,---,0.00,VWS V14.01,2013-07-28 11:58:00,
2013-07-28 06:03:00,48.7,23.6,29.88,SSW,192,0.0,0.0,37,0.00,,---,0.00,VWS V14.01,2013-07-28 12:03:00,
2013-07-28 06:08:00,48.7,23.6,29.91,SSW,192,0.0,0.0,37,0.00,,---,0.00,VWS V14.01,2013-07-28 12:08:00,
2013-07-28 06:13:00,48.7,23.6,29.91,SSW,192,0.0,0.0,37,0.00,,---,0.00,VWS V14.01,2013-07-28 12:13:00,
2013-07-28 06:18:00,48.6,23.5,29.91,SSW,192,0.0,0.0,37,0.00,,---,0.00,VWS V14.01,2013-07-28 12:18:00,
2013-07-28 06:23:00,48.4,23.3,29.91,SSW,202,0.0,0.0,37,0.00,,---,0.00,VWS V14.01,2013-07-28 12:23:00,
2013-07-28 06:28:00,48.4,23.3,29.91,SSW,202,0.0,0.0,37,0.00,,---,0.00,VWS V14.01,2013-07-28 12:28:00,
2013-07-28 06:33:00,48.6,23.5,29.91,SSW,202,0.0,0.0,37,0.00,,---,0.00,VWS V14.01,2013-07-28 12:33:00,
2013-07-28 06:38:00,48.7,23.6,29.91,SSW,202,0.0,0.0,37,0.00,,---,0.00,VWS V14.01,2013-07-28 12:38:00,
2013-07-28 06:43:00,48.9,23.8,29.91,SSW,202,0.0,0.0,37,0.00,,---,0.00,VWS V14.01,2013-07-28 12:43:00,
2013-07-28 06:48:00,49.1,24.0,29.91,SSW,202,0.0,0.0,37,0.00,,---,0.00,VWS V14.01,2013-07-28 12:48:00,
2013-07-28 06:53:00,49.1,24.0,29.91,SSW,202,0.0,0.0,37,0.00,,---,0.00,VWS V14.01,2013-07-28 12:53:00,
2013-07-28 06:58:00,49.3,24.1,29.91,SSW,202,0.0,0.0,37,0.00,,---,0.00,VWS V14.01,2013-07-28 12:58:00,
2013-07-28 07:03:00,49.5,24.9,29.91,SSW,202,0.0,0.0,38,0.00,,---,0.00,VWS V14.01,2013-07-28 13:03:00,
2013-07-28 07:08:00,49.6,25.1,29.91,SSW,202,0.0,0.0,38,0.00,,---,0.00,VWS V14.01,2013-07-28 13:08:00,
2013-07-28 07:13:00,50.0,24.8,29.91,SSW,202,0.0,0.0,37,0.00,,---,0.00,VWS V14.01,2013-07-28 13:13:00,
2013-07-28 07:18:00,50.2,25.6,29.91,SSW,202,0.0,0.0,38,0.00,,---,0.00,VWS V14.01,2013-07-28 13:18:00,
2013-07-28 07:23:00,50.4,25.7,29.91,SSW,202,0.0,0.0,38,0.00,,---,0.00,VWS V14.01,2013-07-28 13:23:00,
2013-07-28 07:28:00,50.5,25.9,29.91,SSW,202,0.0,0.0,38,0.00,,---,0.00,VWS V14.01,2013-07-28 13:28:00,
2013-07-28 07:33:00,50.9,26.2,29.91,SSW,202,0.0,0.0,38,0.00,,---,0.00,VWS V14.01,2013-07-28 13:33:00,
2013-07-28 08:47:00,61.0,33.2,29.91,ESE,102,0.0,0.0,35,0.00,,---,0.00,VWS V14.01,2013-07-28 14:47:00,
2013-07-28 08:52:00,62.2,33.5,29.91,ESE,102,0.0,0.0,34,0.00,,---,0.00,VWS V14.01,2013-07-28 14:52:00,
2013-07-28 08:57:00,63.5,33.9,29.91,ESE,102,0.0,0.0,33,0.00,,---,0.00,VWS V14.01,2013-07-28 14:57:00,
2013-07-28 09:02:00,64.8,32.6,29.91,ESE,102,0.0,0.0,30,0.00,,---,0.00,VWS V14.01,2013-07-28 15:02:00,
2013-07-28 09:07:00,65.5,31.5,29.91,ESE,106,0.0,0.0,28,0.00,,---,0.00,VWS V14.01,2013-07-28 15:07:00,
2013-07-28 09:12:00,67.1,32.0,29.91,ESE,106,0.0,0.0,27,0.00,,---,0.00,VWS V14.01,2013-07-28 15:12:00,
2013-07-28 09:17:00,68.2,32.0,29.91,ESE,108,0.0,0.0,26,0.00,,---,0.00,VWS V14.01,2013-07-28 15:17:00,
2013-07-28 09:22:00,68.9,31.7,29.91,ESE,112,0.0,0.0,25,0.00,,---,0.00,VWS V14.01,2013-07-28 15:22:00,
2013-07-28 09:27:00,70.2,31.7,29.91,SE,125,0.0,0.0,24,0.00,,---,0.00,VWS V14.01,2013-07-28 15:27:00,
2013-07-28 09:32:00,70.9,31.3,29.91,ESE,115,0.0,0.0,23,0.00,,---,0.00,VWS V14.01,2013-07-28 15:32:00,
2013-07-28 09:37:00,71.2,31.6,29.88,SSE,156,3.1,3.1,23,0.00,,---,0.00,VWS V14.01,2013-07-28 15:37:00,
2013-07-28 09:42:00,72.0,31.1,29.88,ESE,105,2.7,3.1,22,0.00,,---,0.00,VWS V14.01,2013-07-28 15:42:00,
2013-07-28 09:47:00,73.0,32.0,29.88,East,98,2.7,3.1,22,0.00,,---,0.00,VWS V14.01,2013-07-28 15:47:00,
2013-07-28 09:52:00,73.8,31.4,29.88,ENE,69,0.0,3.1,21,0.00,,---,0.00,VWS V14.01,2013-07-28 15:52:00,
2013-07-28 09:57:00,74.7,32.2,29.88,ENE,64,0.0,3.1,21,0.00,,---,0.00,VWS V14.01,2013-07-28 15:57:00,
2013-07-28 10:02:00,75.4,31.6,29.88,East,84,0.0,0.0,20,0.00,,---,0.00,VWS V14.01,2013-07-28 16:02:00,
2013-07-28 10:07:00,75.7,31.9,29.88,East,88,2.7,5.4,20,0.00,,---,0.00,VWS V14.01,2013-07-28 16:07:00,
2013-07-28 10:12:00,76.6,30.0,29.88,SE,139,3.6,5.4,18,0.00,,---,0.00,VWS V14.01,2013-07-28 16:12:00,
2013-07-28 10:17:00,77.0,30.3,29.88,ENE,64,0.0,3.6,18,0.00,,---,0.00,VWS V14.01,2013-07-28 16:17:00,
2013-07-28 10:22:00,77.5,30.7,29.88,ENE,75,3.1,4.0,18,0.00,,---,0.00,VWS V14.01,2013-07-28 16:22:00,
2013-07-28 10:27:00,78.1,26.7,29.88,ESE,108,2.2,4.0,15,0.00,,---,0.00,VWS V14.01,2013-07-28 16:27:00,
2013-07-28 10:32:00,78.8,27.3,29.88,East,98,0.0,0.0,15,0.00,,---,0.00,VWS V14.01,2013-07-28 16:32:00,
2013-07-28 10:37:00,79.3,27.7,29.88,ENE,59,0.0,4.0,15,0.00,,---,0.00,VWS V14.01,2013-07-28 16:37:00,
2013-07-28 10:42:00,78.6,27.1,29.88,North,10,0.0,4.0,15,0.00,,---,0.00,VWS V14.01,2013-07-28 16:42:00,
2013-07-28 10:47:00,78.6,27.1,29.88,East,101,0.0,4.0,15,0.00,,---,0.00,VWS V14.01,2013-07-28 16:47:00,
2013-07-28 10:52:00,78.3,26.9,29.88,NNE,13,0.0,4.0,15,0.00,,---,0.00,VWS V14.01,2013-07-28 16:52:00,
2013-07-28 10:57:00,78.6,27.1,29.88,NE,52,3.6,4.0,15,0.00,,---,0.00,VWS V14.01,2013-07-28 16:57:00,
2013-07-28 11:02:00,79.3,27.7,29.88,ENE,58,3.1,4.0,15,0.00,,---,0.00,VWS V14.01,2013-07-28 17:02:00,
2013-07-28 11:07:00,79.7,28.0,29.88,NE,48,2.2,4.0,15,0.00,,---,0.00,VWS V14.01,2013-07-28 17:07:00,
2013-07-28 11:12:00,79.3,27.7,29.88,ENE,60,4.0,4.0,15,0.00,,---,0.00,VWS V14.01,2013-07-28 17:12:00,
2013-07-28 11:17:00,79.0,27.4,29.88,ENE,71,2.7,3.1,15,0.00,,---,0.00,VWS V14.01,2013-07-28 17:17:00,
2013-07-28 11:22:00,79.0,27.4,29.88,NNE,20,0.0,3.6,15,0.00,,---,0.00,VWS V14.01,2013-07-28 17:22:00,
2013-07-28 11:27:00,80.1,28.3,29.88,NW,317,3.1,4.9,15,0.00,,---,0.00,VWS V14.01,2013-07-28 17:27:00,
2013-07-28 11:32:00,79.9,28.1,29.88,North,357,0.0,0.0,15,0.00,,---,0.00,VWS V14.01,2013-07-28 17:32:00,
2013-07-28 11:37:00,79.9,28.1,29.88,NE,43,0.0,3.6,15,0.00,,---,0.00,VWS V14.01,2013-07-28 17:37:00,
2013-07-28 11:42:00,81.3,27.6,29.88,ENE,60,0.0,3.6,14,0.00,,---,0.00,VWS V14.01,2013-07-28 17:42:00,
2013-07-28 11:47:00,82.0,28.2,29.88,ENE,61,0.0,3.6,14,0.00,,---,0.00,VWS V14.01,2013-07-28 17:47:00,
2013-07-28 11:52:00,82.2,28.3,29.88,ESE,111,2.7,3.6,14,0.00,,---,0.00,VWS V14.01,2013-07-28 17:52:00,
2013-07-28 11:57:00,82.6,28.6,29.88,NE,43,2.7,4.9,14,0.00,,---,0.00,VWS V14.01,2013-07-28 17:57:00,
2013-07-28 12:02:00,82.8,28.8,29.88,North,357,0.0,0.0,14,0.00,,---,0.00,VWS V14.01,2013-07-28 18:02:00,
2013-07-28 12:07:00,82.9,28.9,29.85,NE,45,2.2,5.4,14,0.00,,---,0.00,VWS V14.01,2013-07-28 18:07:00,
2013-07-28 12:12:00,83.7,29.5,29.85,ENE,71,3.1,5.4,14,0.00,,---,0.00,VWS V14.01,2013-07-28 18:12:00,
2013-07-28 12:17:00,83.5,29.3,29.85,North,10,3.6,3.6,14,0.00,,---,0.00,VWS V14.01,2013-07-28 18:17:00,
2013-07-28 12:22:00,83.7,29.5,29.85,North,357,0.0,3.6,14,0.00,,---,0.00,VWS V14.01,2013-07-28 18:22:00,
2013-07-28 12:27:00,83.1,29.0,29.85,NE,36,2.7,4.0,14,0.00,,---,0.00,VWS V14.01,2013-07-28 18:27:00,
2013-07-28 12:32:00,82.6,28.6,29.85,North,6,0.0,0.0,14,0.00,,---,0.00,VWS V14.01,2013-07-28 18:32:00,
2013-07-28 12:37:00,82.2,28.3,29.85,NW,316,3.1,3.1,14,0.00,,---,0.00,VWS V14.01,2013-07-28 18:37:00,
2013-07-28 12:42:00,83.1,29.0,29.85,NNW,331,0.0,4.0,14,0.00,,---,0.00,VWS V14.01,2013-07-28 18:42:00,
2013-07-28 12:47:00,82.8,28.8,29.85,NNE,20,0.0,0.0,14,0.00,,---,0.00,VWS V14.01,2013-07-28 18:47:00,
2013-07-28 12:52:00,82.9,28.9,29.85,NE,44,2.7,4.0,14,0.00,,---,0.00,VWS V14.01,2013-07-28 18:52:00,
2013-07-28 12:57:00,83.7,29.5,29.85,NNE,33,3.6,4.0,14,0.00,,---,0.00,VWS V14.01,2013-07-28 18:57:00,
2013-07-28 13:02:00,84.4,28.2,29.85,NNE,18,0.0,3.1,13,0.00,,---,0.00,VWS V14.01,2013-07-28 19:02:00,
2013-07-28 13:07:00,84.6,28.4,29.85,NNE,29,0.0,3.1,13,0.00,,---,0.00,VWS V14.01,2013-07-28 19:07:00,
2013-07-28 13:12:00,84.6,28.4,29.85,North,350,0.0,3.1,13,0.00,,---,0.00,VWS V14.01,2013-07-28 19:12:00,
2013-07-28 13:17:00,84.7,28.5,29.85,ENE,59,2.7,2.7,13,0.00,,---,0.00,VWS V14.01,2013-07-28 19:17:00,
2013-07-28 13:22:00,85.5,29.1,29.85,NNE,23,0.0,4.0,13,0.00,,---,0.00,VWS V14.01,2013-07-28 19:22:00,
2013-07-28 13:27:00,86.0,29.5,29.85,ENE,57,0.0,4.0,13,0.00,,---,0.00,VWS V14.01,2013-07-28 19:27:00,
2013-07-28 13:32:00,86.0,29.5,29.85,NW,304,0.0,0.0,13,0.00,,---,0.00,VWS V14.01,2013-07-28 19:32:00,
2013-07-28 13:37:00,86.5,29.9,29.82,NE,56,0.0,6.3,13,0.00,,---,0.00,VWS V14.01,2013-07-28 19:37:00,
2013-07-28 13:43:00,86.7,30.0,29.82,NE,55,2.7,6.3,13,0.00,,---,0.00,VWS V14.01,2013-07-28 19:43:00,
2013-07-28 13:47:00,87.3,30.5,29.82,East,83,0.0,5.8,13,0.00,,---,0.00,VWS V14.01,2013-07-28 19:47:00,
2013-07-28 13:53:00,87.4,30.6,29.82,ENE,77,5.8,5.8,13,0.00,,---,0.00,VWS V14.01,2013-07-28 19:53:00,
2013-07-28 13:58:00,88.2,31.2,29.82,NNW,339,0.0,5.8,13,0.00,,---,0.00,VWS V14.01,2013-07-28 19:58:00,
2013-07-28 14:03:00,88.2,31.2,29.82,NE,34,0.0,3.6,13,0.00,,---,0.00,VWS V14.01,2013-07-28 20:03:00,
2013-07-28 14:08:00,88.3,31.3,29.82,North,0,2.2,4.0,13,0.00,,---,0.00,VWS V14.01,2013-07-28 20:08:00,
2013-07-28 14:13:00,87.8,30.9,29.82,ENE,73,0.0,4.0,13,0.00,,---,0.00,VWS V14.01,2013-07-28 20:13:00,
2013-07-28 14:18:00,88.2,31.2,29.82,NE,43,3.1,4.0,13,0.00,,---,0.00,VWS V14.01,2013-07-28 20:18:00,
2013-07-28 14:23:00,88.0,31.0,29.82,NW,314,0.0,4.0,13,0.00,,---,0.00,VWS V14.01,2013-07-28 20:23:00,
2013-07-28 14:28:00,87.8,30.9,29.82,NNE,23,0.0,4.0,13,0.00,,---,0.00,VWS V14.01,2013-07-28 20:28:00,
2013-07-28 14:33:00,87.8,30.9,29.82,NNE,18,0.0,2.2,13,0.00,,---,0.00,VWS V14.01,2013-07-28 20:33:00,
2013-07-28 14:38:00,87.4,30.6,29.82,North,357,0.0,5.8,13,0.00,,---,0.00,VWS V14.01,2013-07-28 20:38:00,
2013-07-28 14:43:00,87.4,30.6,29.82,North,350,0.0,5.8,13,0.00,,---,0.00,VWS V14.01,2013-07-28 20:43:00,
2013-07-28 14:48:00,87.8,30.9,29.82,North,0,0.0,3.6,13,0.00,,---,0.00,VWS V14.01,2013-07-28 20:48:00,
2013-07-28 14:53:00,88.2,31.2,29.82,NNE,32,2.2,4.9,13,0.00,,---,0.00,VWS V14.01,2013-07-28 20:53:00,
2013-07-28 14:58:00,88.7,31.6,29.82,ENE,67,3.1,4.9,13,0.00,,---,0.00,VWS V14.01,2013-07-28 20:58:00,
2013-07-28 15:03:00,88.3,31.3,29.82,NNW,332,0.0,3.1,13,0.00,,---,0.00,VWS V14.01,2013-07-28 21:03:00,
2013-07-28 15:08:00,87.6,30.8,29.82,North,357,0.0,3.1,13,0.00,,---,0.00,VWS V14.01,2013-07-28 21:08:00,
2013-07-28 15:13:00,86.9,30.2,29.82,North,0,2.2,3.1,13,0.00,,---,0.00,VWS V14.01,2013-07-28 21:13:00,
2013-07-28 15:18:00,86.9,30.2,29.82,North,353,2.2,3.1,13,0.00,,---,0.00,VWS V14.01,2013-07-28 21:18:00,
2013-07-28 15:23:00,87.1,30.3,29.79,NNE,33,2.7,3.1,13,0.00,,---,0.00,VWS V14.01,2013-07-28 21:23:00,
2013-07-28 15:28:00,87.4,30.6,29.79,NE,44,0.0,4.0,13,0.00,,---,0.00,VWS V14.01,2013-07-28 21:28:00,
2013-07-28 15:33:00,87.8,30.9,29.79,West,275,3.1,3.1,13,0.00,,---,0.00,VWS V14.01,2013-07-28 21:33:00,
2013-07-28 15:38:00,88.9,31.7,29.79,NE,45,2.2,4.0,13,0.00,,---,0.00,VWS V14.01,2013-07-28 21:38:00,
2013-07-28 15:43:00,89.4,32.2,29.79,NE,38,2.7,4.0,13,0.00,,---,0.00,VWS V14.01,2013-07-28 21:43:00,
2013-07-28 15:48:00,89.6,30.3,29.79,North,353,3.1,4.9,12,0.00,,---,0.00,VWS V14.01,2013-07-28 21:48:00,
2013-07-28 15:53:00,89.2,32.0,29.79,NNE,31,2.2,4.9,13,0.00,,---,0.00,VWS V14.01,2013-07-28 21:53:00,
2013-07-28 15:58:00,89.2,32.0,29.79,North,5,2.2,4.9,13,0.00,,---,0.00,VWS V14.01,2013-07-28 21:58:00,
2013-07-28 16:03:00,88.3,31.3,29.79,NNE,27,2.7,3.6,13,0.00,,---,0.00,VWS V14.01,2013-07-28 22:03:00,
2013-07-28 16:08:00,88.7,31.6,29.79,NE,42,2.7,3.6,13,0.00,,---,0.00,VWS V14.01,2013-07-28 22:08:00,
2013-07-28 16:13:00,89.6,30.3,29.79,East,83,2.7,3.6,12,0.00,,---,0.00,VWS V14.01,2013-07-28 22:13:00,
2013-07-28 16:18:00,89.6,30.3,29.79,ENE,61,2.7,4.9,12,0.00,,---,0.00,VWS V14.01,2013-07-28 22:18:00,
2013-07-28 16:23:00,90.0,30.6,29.79,NE,49,2.7,5.4,12,0.00,,---,0.00,VWS V14.01,2013-07-28 22:23:00,
2013-07-28 16:28:00,89.6,30.3,29.79,West,267,2.7,5.4,12,0.00,,---,0.00,VWS V14.01,2013-07-28 22:28:00,
2013-07-28 16:33:00,90.1,30.7,29.79,NW,318,0.0,3.1,12,0.00,,---,0.00,VWS V14.01,2013-07-28 22:33:00,
2013-07-28 16:38:00,89.2,32.0,29.79,NNW,330,5.4,5.4,13,0.00,,---,0.00,VWS V14.01,2013-07-28 22:38:00,
2013-07-28 16:43:00,89.4,32.2,29.79,NNE,22,0.0,5.4,13,0.00,,---,0.00,VWS V14.01,2013-07-28 22:43:00,
2013-07-28 16:48:00,89.6,30.3,29.79,WSW,250,2.7,3.6,12,0.00,,---,0.00,VWS V14.01,2013-07-28 22:48:00,
2013-07-28 16:53:00,90.5,31.0,29.79,NE,43,3.6,7.2,12,0.00,,---,0.00,VWS V14.01,2013-07-28 22:53:00,
2013-07-28 16:58:00,90.7,31.2,29.79,NW,316,3.1,7.6,12,0.00,,---,0.00,VWS V14.01,2013-07-28 22:58:00,
2013-07-28 17:03:00,90.1,30.7,29.79,WSW,242,2.2,4.5,12,0.00,,---,0.00,VWS V14.01,2013-07-28 23:03:00,
2013-07-28 17:08:00,90.9,31.3,29.79,NW,319,4.9,5.4,12,0.00,,---,0.00,VWS V14.01,2013-07-28 23:08:00,
2013-07-28 17:13:00,90.7,31.2,29.79,NW,309,4.0,5.4,12,0.00,,---,0.00,VWS V14.01,2013-07-28 23:13:00,
2013-07-28 17:18:00,90.3,30.9,29.79,SW,222,5.4,8.3,12,0.00,,---,0.00,VWS V14.01,2013-07-28 23:18:00,
2013-07-28 17:23:00,91.0,31.4,29.79,WNW,284,2.7,8.3,12,0.00,,---,0.00,VWS V14.01,2013-07-28 23:23:00,
2013-07-28 17:28:00,90.9,31.3,29.79,NNE,32,3.1,8.3,12,0.00,,---,0.00,VWS V14.01,2013-07-28 23:28:00,
2013-07-28 17:33:00,88.7,31.6,29.79,NW,308,3.1,3.1,13,0.00,,---,0.00,VWS V14.01,2013-07-28 23:33:00,
2013-07-28 17:38:00,88.2,31.2,29.79,North,11,2.7,3.6,13,0.00,,---,0.00,VWS V14.01,2013-07-28 23:38:00,
2013-07-28 17:43:00,88.0,31.0,29.79,NNW,336,0.0,3.6,13,0.00,,---,0.00,VWS V14.01,2013-07-28 23:43:00,
2013-07-28 17:48:00,86.7,30.0,29.79,SW,226,0.0,2.7,13,0.00,,---,0.00,VWS V14.01,2013-07-28 23:48:00,
2013-07-28 17:53:00,86.2,29.6,29.79,NNE,17,2.7,3.6,13,0.00,,---,0.00,VWS V14.01,2013-07-28 23:53:00,
2013-07-28 17:58:00,85.8,29.4,29.79,NNW,343,4.0,5.4,13,0.00,,---,0.00,VWS V14.01,2013-07-28 23:58:00,
2013-07-28 18:03:00,85.8,29.4,29.79,NE,36,0.0,5.4,13,0.00,,---,0.00,VWS V14.01,2013-07-29 00:03:00,
2013-07-28 18:08:00,86.4,29.8,29.79,NW,321,3.6,5.4,13,0.00,,---,0.00,VWS V14.01,2013-07-29 00:08:00,
2013-07-28 18:13:00,85.5,29.1,29.79,NNE,27,0.0,5.4,13,0.00,,---,0.00,VWS V14.01,2013-07-29 00:13:00,
2013-07-28 18:18:00,85.3,28.9,29.79,NE,41,2.2,4.0,13,0.00,,---,0.00,VWS V14.01,2013-07-29 00:18:00,
2013-07-28 18:23:00,84.7,28.5,29.79,NNE,31,2.7,7.2,13,0.00,,---,0.00,VWS V14.01,2013-07-29 00:23:00,
2013-07-28 18:28:00,84.7,28.5,29.79,NNE,26,0.0,7.2,13,0.00,,---,0.00,VWS V14.01,2013-07-29 00:28:00,
2013-07-28 18:33:00,84.4,28.2,29.79,NNE,30,0.0,3.6,13,0.00,,---,0.00,VWS V14.01,2013-07-29 00:33:00,
2013-07-28 18:38:00,84.7,28.5,29.79,NNE,21,2.2,3.6,13,0.00,,---,0.00,VWS V14.01,2013-07-29 00:38:00,
2013-07-28 18:43:00,84.6,28.4,29.79,WSW,255,0.0,5.8,13,0.00,,---,0.00,VWS V14.01,2013-07-29 00:43:00,
2013-07-28 18:48:00,84.4,28.2,29.79,NNE,19,0.0,3.1,13,0.00,,---,0.00,VWS V14.01,2013-07-29 00:48:00,
2013-07-28 18:53:00,84.0,29.8,29.79,North,0,0.0,3.6,14,0.00,,---,0.00,VWS V14.01,2013-07-29 00:53:00,
2013-07-28 18:58:00,83.8,29.6,29.79,North,0,0.0,3.6,14,0.00,,---,0.00,VWS V14.01,2013-07-29 00:58:00,
2013-07-28 19:03:00,83.1,29.0,29.79,North,1,0.0,4.0,14,0.00,,---,0.00,VWS V14.01,2013-07-29 01:03:00,
2013-07-28 19:08:00,82.8,28.8,29.79,NNE,18,0.0,4.0,14,0.00,,---,0.00,VWS V14.01,2013-07-29 01:08:00,
2013-07-28 19:13:00,82.4,28.5,29.79,NNE,12,2.7,4.0,14,0.00,,---,0.00,VWS V14.01,2013-07-29 01:13:00,
2013-07-28 19:18:00,81.7,27.9,29.79,NNE,20,0.0,3.6,14,0.00,,---,0.00,VWS V14.01,2013-07-29 01:18:00,
2013-07-28 19:23:00,81.1,27.5,29.79,NNE,30,0.0,3.6,14,0.00,,---,0.00,VWS V14.01,2013-07-29 01:23:00,
2013-07-28 19:28:00,80.6,27.0,29.79,NE,39,0.0,4.0,14,0.00,,---,0.00,VWS V14.01,2013-07-29 01:28:00,
2013-07-28 19:33:00,80.2,28.4,29.79,NE,43,0.0,0.0,15,0.00,,---,0.00,VWS V14.01,2013-07-29 01:33:00,
2013-07-28 19:38:00,79.9,28.1,29.79,North,3,0.0,2.7,15,0.00,,---,0.00,VWS V14.01,2013-07-29 01:38:00,
2013-07-28 19:43:00,79.5,22.5,29.79,North,357,0.0,2.7,12,0.00,,---,0.00,VWS V14.01,2013-07-29 01:43:00,
2013-07-28 19:48:00,79.3,22.4,29.79,NE,51,0.0,0.0,12,0.00,,---,0.00,VWS V14.01,2013-07-29 01:48:00,
2013-07-28 19:53:00,79.3,22.4,29.79,NNW,332,0.0,0.0,12,0.00,,---,0.00,VWS V14.01,2013-07-29 01:53:00,
2013-07-28 19:58:00,79.2,22.2,29.79,NNW,332,0.0,0.0,12,0.00,,---,0.00,VWS V14.01,2013-07-29 01:58:00,
2013-07-28 20:04:00,78.6,23.7,29.79,NNW,333,0.0,0.0,13,0.00,,---,0.00,VWS V14.01,2013-07-29 02:04:00,
2013-07-28 20:09:00,77.9,23.1,29.79,NW,315,0.0,0.0,13,0.00,,---,0.00,VWS V14.01,2013-07-29 02:09:00,
2013-07-28 20:14:00,77.5,22.9,29.79,NW,315,0.0,0.0,13,0.00,,---,0.00,VWS V14.01,2013-07-29 02:14:00,
2013-07-28 20:19:00,77.2,22.6,29.79,NNW,343,0.0,0.0,13,0.00,,---,0.00,VWS V14.01,2013-07-29 02:19:00,
2013-07-28 20:24:00,76.5,22.0,29.79,North,353,0.0,0.0,13,0.00,,---,0.00,VWS V14.01,2013-07-29 02:24:00,
2013-07-28 20:29:00,76.1,21.7,29.79,NW,321,0.0,3.6,13,0.00,,---,0.00,VWS V14.01,2013-07-29 02:29:00,
2013-07-28 20:34:00,75.6,21.3,29.82,NNW,331,0.0,0.0,13,0.00,,---,0.00,VWS V14.01,2013-07-29 02:34:00,
2013-07-28 20:39:00,75.2,21.0,29.82,NNW,331,0.0,0.0,13,0.00,,---,0.00,VWS V14.01,2013-07-29 02:39:00,
2013-07-28 20:44:00,74.7,20.6,29.82,NNW,331,0.0,0.0,13,0.00,,---,0.00,VWS V14.01,2013-07-29 02:44:00,
2013-07-28 20:49:00,74.3,20.3,29.82,North,3,0.0,0.0,13,0.00,,---,0.00,VWS V14.01,2013-07-29 02:49:00,
2013-07-28 20:55:00,74.7,20.6,29.82,West,278,0.0,0.0,13,0.00,,---,0.00,VWS V14.01,2013-07-29 02:55:00,
2013-07-28 21:00:00,74.7,20.6,29.82,West,278,0.0,0.0,13,0.00,,---,0.00,VWS V14.01,2013-07-29 03:00:00,
2013-07-28 21:05:00,74.8,20.7,29.82,NW,313,0.0,2.2,13,0.00,,---,0.00,VWS V14.01,2013-07-29 03:05:00,
2013-07-28 21:10:00,74.7,20.6,29.82,NNW,327,0.0,2.7,13,0.00,,---,0.00,VWS V14.01,2013-07-29 03:10:00,
2013-07-28 21:15:00,74.5,20.5,29.82,WNW,287,0.0,0.0,13,0.00,,---,0.00,VWS V14.01,2013-07-29 03:15:00,
2013-07-28 21:20:00,74.3,20.3,29.82,West,278,0.0,0.0,13,0.00,,---,0.00,VWS V14.01,2013-07-29 03:20:00,
2013-07-28 21:25:00,73.8,19.9,29.82,WSW,252,0.0,2.7,13,0.00,,---,0.00,VWS V14.01,2013-07-29 03:25:00,
2013-07-28 21:31:00,72.9,20.9,29.82,WSW,252,0.0,0.0,14,0.00,,---,0.00,VWS V14.01,2013-07-29 03:31:00,
2013-07-28 21:36:00,72.0,20.2,29.82,WSW,252,0.0,0.0,14,0.00,,---,0.00,VWS V14.01,2013-07-29 03:36:00,
2013-07-28 21:41:00,70.9,19.4,29.82,WSW,252,0.0,0.0,14,0.00,,---,0.00,VWS V14.01,2013-07-29 03:41:00,
2013-07-28 21:46:00,70.3,18.9,29.82,WSW,252,0.0,0.0,14,0.00,,---,0.00,VWS V14.01,2013-07-29 03:46:00,
2013-07-28 21:51:00,69.1,19.5,29.82,WSW,252,0.0,0.0,15,0.00,,---,0.00,VWS V14.01,2013-07-29 03:51:00,
2013-07-28 21:56:00,68.0,18.7,29.82,WSW,252,0.0,0.0,15,0.00,,---,0.00,VWS V14.01,2013-07-29 03:56:00,
2013-07-28 22:01:00,67.1,17.9,29.82,WSW,252,0.0,0.0,15,0.00,,---,0.00,VWS V14.01,2013-07-29 04:01:00,
2013-07-28 22:06:00,66.4,20.3,29.85,WSW,252,0.0,0.0,17,0.00,,---,0.00,VWS V14.01,2013-07-29 04:06:00,
2013-07-28 22:11:00,65.8,21.2,29.85,WSW,252,0.0,0.0,18,0.00,,---,0.00,VWS V14.01,2013-07-29 04:11:00,
2013-07-28 22:16:00,66.0,17.1,29.85,WSW,252,0.0,0.0,15,0.00,,---,0.00,VWS V14.01,2013-07-29 04:16:00,
2013-07-28 22:21:00,67.3,18.1,29.85,WSW,252,0.0,0.0,15,0.00,,---,0.00,VWS V14.01,2013-07-29 04:21:00,
2013-07-28 22:26:00,68.5,19.1,29.85,WSW,252,0.0,0.0,15,0.00,,---,0.00,VWS V14.01,2013-07-29 04:26:00,
2013-07-28 22:31:00,68.9,19.4,29.85,WSW,252,0.0,0.0,15,0.00,,---,0.00,VWS V14.01,2013-07-29 04:31:00,
2013-07-28 22:36:00,68.0,18.7,29.85,SW,225,0.0,0.0,15,0.00,,---,0.00,VWS V14.01,2013-07-29 04:36:00,
2013-07-28 22:42:00,67.1,20.9,29.85,ENE,60,3.1,4.0,17,0.00,,---,0.00,VWS V14.01,2013-07-29 04:42:00,
2013-07-28 22:47:00,64.6,20.1,29.85,ENE,60,0.0,0.0,18,0.00,,---,0.00,VWS V14.01,2013-07-29 04:47:00,
2013-07-28 22:52:00,63.0,18.8,29.85,ENE,60,0.0,0.0,18,0.00,,---,0.00,VWS V14.01,2013-07-29 04:52:00,
2013-07-28 22:57:00,62.2,21.9,29.85,West,274,0.0,0.0,21,0.00,,---,0.00,VWS V14.01,2013-07-29 04:57:00,
2013-07-28 23:02:00,62.2,21.9,29.85,West,274,0.0,0.0,21,0.00,,---,0.00,VWS V14.01,2013-07-29 05:02:00,
2013-07-28 23:07:00,62.6,18.5,29.85,West,276,0.0,0.0,18,0.00,,---,0.00,VWS V14.01,2013-07-29 05:07:00,
2013-07-28 23:12:00,63.5,19.3,29.85,WNW,288,0.0,0.0,18,0.00,,---,0.00,VWS V14.01,2013-07-29 05:12:00,
2013-07-28 23:17:00,64.4,20.0,29.85,WNW,288,0.0,0.0,18,0.00,,---,0.00,VWS V14.01,2013-07-29 05:17:00,
2013-07-28 23:22:00,64.4,20.0,29.85,West,280,0.0,3.6,18,0.00,,---,0.00,VWS V14.01,2013-07-29 05:22:00,
2013-07-28 23:27:00,64.8,20.3,29.85,East,100,0.0,3.6,18,0.00,,---,0.00,VWS V14.01,2013-07-29 05:27:00,
2013-07-28 23:32:00,63.5,19.3,29.85,WSW,245,0.0,0.0,18,0.00,,---,0.00,VWS V14.01,2013-07-29 05:32:00,
2013-07-28 23:37:00,62.6,18.5,29.85,WSW,238,0.0,0.0,18,0.00,,---,0.00,VWS V14.01,2013-07-29 05:37:00,
2013-07-28 23:42:00,61.9,19.2,29.85,WSW,256,0.0,0.0,19,0.00,,---,0.00,VWS V14.01,2013-07-29 05:42:00,
2013-07-28 23:47:00,61.3,18.8,29.85,WSW,256,0.0,0.0,19,0.00,,---,0.00,VWS V14.01,2013-07-29 05:47:00,
2013-07-28 23:52:00,60.8,18.3,29.85,SSW,204,0.0,0.0,19,0.00,,---,0.00,VWS V14.01,2013-07-29 05:52:00,
2013-07-28 23:57:00,60.4,18.0,29.85,SSW,213,0.0,0.0,19,0.00,,---,0.00,VWS V14.01,2013-07-29 05:57:00,